Location: Newark
(42.1399°N, 3.1179°E)
Time: 22:22:37
(UTC+00:00)

Envisat - Pass Details

Date: 25 July 2019
Orbit: 764 x 766 km, 98.1° (Epoch: 19 August)

Event Time Altitude Azimuth Distance (km) Brightness Sun altitude
Rises 19:38:48 0° 220° (SW) 3,221 6.3 -4.8°
Reaches altitude 10° 19:42:58 10° 254° (WSW) 2,302 6.1 -5.4°
Maximum altitude 19:44:30 11° 272° (W) 2,217 6.5 -5.7°
Drops below altitude 10° 19:46:02 10° 290° (WNW) 2,307 7.1 -5.9°
Sets 19:50:16 0° 324° (NW) 3,240 7.8 -6.6°
